Home > Weather > Thunder Bay > Past weeks

Flag for Canada Past Weather in Thunder Bay, Ontario, Canada — Yesterday and Last 2 Weeks

Now
59 °F

Passing clouds.


Feels Like: 59 °F
Forecast: 63 / 76 °F
Wind: 5 mph from West

Location: Thunder Bay

Current Time: Jul 23, 2016 at 7:12:16 AM

Latest Report: Jul 23, 2016 at 6:00 AM


Visibility: 20 mi

Pressure: 29.99 "Hg

Humidity: 94%

Dew Point: 57 °F

Location of Thunder BayLocation

Past Weather in Thunder Bay — Graph

°F

Thunder Bay Temperature Yesterday

Maximum temperature yesterday: 88 °F (at 4:00 PM)
Minimum temperature yesterday: 64 °F (at 7:00 AM)
Average temperature yesterday: 77 °F

High & Low Weather Summary for the Past Weeks

 TemperatureHumidityPressure
High90 °F (Jul 21, 2:00 PM)100% (Jul 8, 8:00 AM)30.26 "Hg (Jul 8, 8:00 AM)
Low43 °F (Jul 16, 6:00 AM)31% (Jul 21, 4:00 PM)29.44 "Hg (Jul 13, 12:00 PM)
Average66 °F76%29.88 "Hg
* Reported Jul 8 6:00 AM — Jul 23 6:00 AM, Thunder Bay, Weather by CustomWeather, © 2016

Note: Actual official high and low records may vary slightly from our data, if they occured in-between our weather recording intervals... More about our weather records

Advertising

Thunder Bay Weather History for the Previous 24 Hours

Scroll right to see more
 ConditionsComfort  
Time TempWeatherWind HumidityBarometerVisibility
6:00 AM
Sat, Jul 23
59 °FPassing clouds.5 mph94%29.99 "Hg20 mi
5:00 AM61 °FClear.2 mph94%29.99 "Hg15 mi
4:00 AM61 °FClear.3 mph94%29.97 "Hg15 mi
3:00 AM63 °FClear.5 mph88%29.97 "Hg15 mi
2:00 AM63 °FClear.7 mph94%29.96 "Hg15 mi
1:00 AM64 °FPassing clouds.6 mph88%29.94 "Hg15 mi
12:00 AM70 °FPassing clouds.3 mph78%29.93 "Hg15 mi
11:00 PM
Fri, Jul 22
72 °FPassing clouds.5 mph73%29.90 "Hg15 mi
10:00 PM73 °FPassing clouds.2 mph69%29.88 "Hg20 mi
9:00 PM81 °FPassing clouds.7 mph51%29.88 "Hg20 mi
8:00 PM84 °FPassing clouds.10 mph40%29.87 "Hg20 mi
7:00 PM86 °FPassing clouds.13 mph35%29.87 "Hg20 mi
6:00 PM88 °FPassing clouds.12 mph35%29.87 "Hg20 mi
5:00 PM88 °FPassing clouds.16 mph33%29.87 "Hg20 mi
4:00 PM88 °FPassing clouds.15 mph35%29.87 "Hg20 mi
3:00 PM86 °FScattered clouds.15 mph40%29.88 "Hg20 mi
2:00 PM86 °FScattered clouds.14 mph40%29.88 "Hg20 mi
1:00 PM84 °FScattered clouds.16 mph45%29.88 "Hg20 mi
12:00 PM84 °FPassing clouds.17 mph45%29.86 "Hg20 mi
11:00 AM81 °FSunny.13 mph58%29.86 "Hg20 mi
10:00 AM79 °FPassing clouds.12 mph58%29.88 "Hg20 mi
9:00 AM73 °FPassing clouds.8 mph69%29.86 "Hg20 mi
8:00 AM70 °FPassing clouds.7 mph73%29.86 "Hg20 mi
7:00 AM64 °FPassing clouds.7 mph83%29.87 "Hg20 mi
Weather by CustomWeather, © 2016

See weather overviewHow to use our weather pages